Time,TemperatureF,DewpointF,PressureIn,WindDirection,WindDirectionDegrees,WindSpeedMPH,WindSpeedGustMPH,Humidity,HourlyPrecipIn,Conditions,Clouds,dailyrainin,SoftwareType,DateUTC
2013-01-27 00:01:00,31.0,15.0,-100.00,North,-999,-999.0,-999.0,49,0.00,,,-99.99,,2013-01-27 06:01:00,
2013-01-27 00:11:00,31.0,15.0,-100.00,North,-999,-999.0,-999.0,50,0.00,,,-99.99,,2013-01-27 06:11:00,
2013-01-27 00:21:00,31.0,15.0,-100.00,North,-999,-999.0,-999.0,50,0.00,,,-99.99,,2013-01-27 06:21:00,
2013-01-27 00:32:00,31.0,15.0,-100.00,North,-999,-999.0,-999.0,50,0.00,,,-99.99,,2013-01-27 06:32:00,
2013-01-27 00:41:00,31.0,15.0,-100.00,North,-999,-999.0,-999.0,50,0.00,,,-99.99,,2013-01-27 06:41:00,
2013-01-27 00:51:00,31.0,15.0,-100.00,North,-999,-999.0,-999.0,50,0.00,,,-99.99,,2013-01-27 06:51:00,
2013-01-27 01:01:00,31.0,15.0,-100.00,North,-999,-999.0,-999.0,50,0.00,,,-99.99,,2013-01-27 07:01:00,
2013-01-27 01:13:00,31.0,15.0,-100.00,North,-999,-999.0,-999.0,50,0.00,,,-99.99,,2013-01-27 07:13:00,
2013-01-27 01:21:00,31.0,15.0,-100.00,North,-999,-999.0,-999.0,50,0.00,,,-99.99,,2013-01-27 07:21:00,
2013-01-27 01:31:00,31.0,15.0,-100.00,North,-999,-999.0,-999.0,50,0.00,,,-99.99,,2013-01-27 07:31:00,
2013-01-27 01:41:00,31.0,15.0,-100.00,North,-999,-999.0,-999.0,50,0.00,,,-99.99,,2013-01-27 07:41:00,
2013-01-27 01:51:00,31.0,15.0,-100.00,North,-999,-999.0,-999.0,50,0.00,,,-99.99,,2013-01-27 07:51:00,
2013-01-27 02:01:00,31.0,15.0,-100.00,North,-999,-999.0,-999.0,50,0.00,,,-99.99,,2013-01-27 08:01:00,
2013-01-27 02:11:00,31.0,15.0,-100.00,North,-999,-999.0,-999.0,50,0.00,,,-99.99,,2013-01-27 08:11:00,
2013-01-27 02:22:00,31.0,15.0,-100.00,North,-999,-999.0,-999.0,50,0.00,,,-99.99,,2013-01-27 08:22:00,
2013-01-27 02:31:00,32.0,15.0,-100.00,North,-999,-999.0,-999.0,50,0.00,,,-99.99,,2013-01-27 08:31:00,
2013-01-27 02:41:00,32.0,15.0,-100.00,North,-999,-999.0,-999.0,50,0.00,,,-99.99,,2013-01-27 08:41:00,
2013-01-27 02:52:00,32.0,16.0,-100.00,North,-999,-999.0,-999.0,50,0.00,,,-99.99,,2013-01-27 08:52:00,
2013-01-27 03:02:00,32.0,16.0,-100.00,North,-999,-999.0,-999.0,50,0.00,,,-99.99,,2013-01-27 09:02:00,
2013-01-27 03:11:00,32.0,16.0,-100.00,North,-999,-999.0,-999.0,50,0.00,,,-99.99,,2013-01-27 09:11:00,
2013-01-27 03:21:00,32.0,16.0,-100.00,North,-999,-999.0,-999.0,50,0.00,,,-99.99,,2013-01-27 09:21:00,
2013-01-27 03:32:00,33.0,16.0,-100.00,North,-999,-999.0,-999.0,50,0.00,,,-99.99,,2013-01-27 09:32:00,
2013-01-27 03:41:00,33.0,16.0,-100.00,North,-999,-999.0,-999.0,50,0.00,,,-99.99,,2013-01-27 09:41:00,
2013-01-27 03:51:00,32.0,17.0,-100.00,North,-999,-999.0,-999.0,51,0.00,,,-99.99,,2013-01-27 09:51:00,
2013-01-27 04:01:00,32.0,17.0,-100.00,North,-999,-999.0,-999.0,51,0.00,,,-99.99,,2013-01-27 10:01:00,
2013-01-27 04:11:00,33.0,17.0,-100.00,North,-999,-999.0,-999.0,52,0.00,,,-99.99,,2013-01-27 10:11:00,
2013-01-27 04:21:00,32.0,17.0,-100.00,North,-999,-999.0,-999.0,52,0.00,,,-99.99,,2013-01-27 10:21:00,
2013-01-27 04:31:00,33.0,17.0,-100.00,North,-999,-999.0,-999.0,52,0.00,,,-99.99,,2013-01-27 10:31:00,
2013-01-27 04:41:00,33.0,17.0,-100.00,North,-999,-999.0,-999.0,52,0.00,,,-99.99,,2013-01-27 10:41:00,
2013-01-27 04:51:00,33.0,18.0,-100.00,North,-999,-999.0,-999.0,53,0.00,,,-99.99,,2013-01-27 10:51:00,
2013-01-27 05:01:00,33.0,18.0,-100.00,North,-999,-999.0,-999.0,53,0.00,,,-99.99,,2013-01-27 11:01:00,
2013-01-27 05:11:00,33.0,20.0,-100.00,North,-999,-999.0,-999.0,58,0.00,,,-99.99,,2013-01-27 11:11:00,
2013-01-27 05:21:00,33.0,22.0,-100.00,North,-999,-999.0,-999.0,62,0.00,,,-99.99,,2013-01-27 11:21:00,
2013-01-27 05:32:00,33.0,24.0,-100.00,North,-999,-999.0,-999.0,71,0.01,,,-99.99,,2013-01-27 11:32:00,
2013-01-27 05:42:00,33.0,24.0,-100.00,North,-999,-999.0,-999.0,71,0.01,,,-99.99,,2013-01-27 11:42:00,
2013-01-27 05:52:00,32.0,26.0,-100.00,North,-999,-999.0,-999.0,76,0.01,,,-99.99,,2013-01-27 11:52:00,
2013-01-27 06:02:00,32.0,26.0,-100.00,North,-999,-999.0,-999.0,76,0.01,,,-99.99,,2013-01-27 12:02:00,
2013-01-27 06:11:00,32.0,27.0,-100.00,North,-999,-999.0,-999.0,79,0.06,,,-99.99,,2013-01-27 12:11:00,
2013-01-27 06:21:00,32.0,27.0,-100.00,North,-999,-999.0,-999.0,81,0.04,,,-99.99,,2013-01-27 12:21:00,
2013-01-27 06:32:00,32.0,32.0,-100.00,North,-999,-999.0,-999.0,99,0.04,,,-99.99,,2013-01-27 12:32:00,
2013-01-27 06:42:00,32.0,32.0,-100.00,North,-999,-999.0,-999.0,99,0.04,,,-99.99,,2013-01-27 12:42:00,
2013-01-27 06:53:00,32.0,-99.9,-100.00,North,-999,-999.0,-999.0,-999,0.01,,,-99.99,,2013-01-27 12:53:00,
2013-01-27 07:02:00,32.0,-99.9,-100.00,North,-999,-999.0,-999.0,-999,0.01,,,-99.99,,2013-01-27 13:02:00,
2013-01-27 07:12:00,32.0,-99.9,-100.00,North,-999,-999.0,-999.0,-999,0.03,,,-99.99,,2013-01-27 13:12:00,
2013-01-27 07:22:00,32.0,-99.9,-100.00,North,-999,-999.0,-999.0,-999,0.01,,,-99.99,,2013-01-27 13:22:00,
2013-01-27 07:32:00,32.0,-99.9,-100.00,North,-999,-999.0,-999.0,-999,0.01,,,-99.99,,2013-01-27 13:32:00,
2013-01-27 07:42:00,32.0,-99.9,-100.00,North,-999,-999.0,-999.0,-999,0.01,,,-99.99,,2013-01-27 13:42:00,
2013-01-27 07:52:00,32.0,-99.9,-100.00,North,-999,-999.0,-999.0,-999,0.01,,,-99.99,,2013-01-27 13:52:00,
2013-01-27 08:02:00,32.0,-99.9,-100.00,North,-999,-999.0,-999.0,-999,0.01,,,-99.99,,2013-01-27 14:02:00,
2013-01-27 08:12:00,32.0,-99.9,-100.00,North,-999,-999.0,-999.0,-999,0.00,,,-99.99,,2013-01-27 14:12:00,
2013-01-27 08:22:00,32.0,-99.9,-100.00,North,-999,-999.0,-999.0,-999,0.00,,,-99.99,,2013-01-27 14:22:00,
2013-01-27 08:33:00,32.0,-99.9,-100.00,North,-999,-999.0,-999.0,-999,0.00,,,-99.99,,2013-01-27 14:33:00,
2013-01-27 08:43:00,32.0,-99.9,-100.00,North,-999,-999.0,-999.0,-999,0.00,,,-99.99,,2013-01-27 14:43:00,
2013-01-27 08:53:00,32.0,-99.9,-100.00,North,-999,-999.0,-999.0,-999,0.00,,,-99.99,,2013-01-27 14:53:00,
2013-01-27 09:03:00,32.0,-99.9,-100.00,North,-999,-999.0,-999.0,-999,0.00,,,-99.99,,2013-01-27 15:03:00,
2013-01-27 09:12:00,32.0,-99.9,-100.00,North,-999,-999.0,-999.0,-999,0.00,,,-99.99,,2013-01-27 15:12:00,
2013-01-27 09:22:00,32.0,-99.9,-100.00,North,-999,-999.0,-999.0,-999,0.00,,,-99.99,,2013-01-27 15:22:00,
2013-01-27 09:33:00,32.0,-99.9,-100.00,North,-999,-999.0,-999.0,-999,0.00,,,-99.99,,2013-01-27 15:33:00,
2013-01-27 09:43:00,32.0,-99.9,-100.00,North,-999,-999.0,-999.0,-999,0.00,,,-99.99,,2013-01-27 15:43:00,
2013-01-27 09:53:00,32.0,-99.9,-100.00,North,-999,-999.0,-999.0,-999,0.00,,,-99.99,,2013-01-27 15:53:00,
2013-01-27 10:03:00,32.0,-99.9,-100.00,North,-999,-999.0,-999.0,-999,0.00,,,-99.99,,2013-01-27 16:03:00,
2013-01-27 10:12:00,32.0,-99.9,-100.00,North,-999,-999.0,-999.0,-999,0.00,,,-99.99,,2013-01-27 16:12:00,
2013-01-27 10:22:00,32.0,-99.9,-100.00,North,-999,-999.0,-999.0,-999,0.00,,,-99.99,,2013-01-27 16:22:00,
2013-01-27 10:33:00,33.0,-99.9,-100.00,North,-999,-999.0,-999.0,-999,0.00,,,-99.99,,2013-01-27 16:33:00,
2013-01-27 10:42:00,33.0,-99.9,-100.00,North,-999,-999.0,-999.0,-999,0.00,,,-99.99,,2013-01-27 16:42:00,
2013-01-27 10:53:00,33.0,-99.9,-100.00,North,-999,-999.0,-999.0,-999,0.00,,,-99.99,,2013-01-27 16:53:00,
2013-01-27 11:02:00,33.0,-99.9,-100.00,North,-999,-999.0,-999.0,-999,0.00,,,-99.99,,2013-01-27 17:02:00,
2013-01-27 11:13:00,33.0,-99.9,-100.00,North,-999,-999.0,-999.0,-999,0.00,,,-99.99,,2013-01-27 17:13:00,
2013-01-27 11:22:00,33.0,-99.9,-100.00,North,-999,-999.0,-999.0,-999,0.00,,,-99.99,,2013-01-27 17:22:00,
2013-01-27 11:33:00,33.0,-99.9,-100.00,North,-999,-999.0,-999.0,-999,0.00,,,-99.99,,2013-01-27 17:33:00,
2013-01-27 11:42:00,33.0,-99.9,-100.00,North,-999,-999.0,-999.0,-999,0.00,,,-99.99,,2013-01-27 17:42:00,
2013-01-27 11:53:00,33.0,-99.9,-100.00,North,-999,-999.0,-999.0,-999,0.00,,,-99.99,,2013-01-27 17:53:00,
2013-01-27 12:03:00,33.0,-99.9,-100.00,North,-999,-999.0,-999.0,-999,0.00,,,-99.99,,2013-01-27 18:03:00,
2013-01-27 12:12:00,33.0,-99.9,-100.00,North,-999,-999.0,-999.0,-999,0.00,,,-99.99,,2013-01-27 18:12:00,
2013-01-27 12:23:00,33.0,-99.9,-100.00,North,-999,-999.0,-999.0,-999,0.00,,,-99.99,,2013-01-27 18:23:00,
2013-01-27 12:33:00,33.0,-99.9,-100.00,North,-999,-999.0,-999.0,-999,0.00,,,-99.99,,2013-01-27 18:33:00,
2013-01-27 12:42:00,33.0,-99.9,-100.00,North,-999,-999.0,-999.0,-999,0.00,,,-99.99,,2013-01-27 18:42:00,
2013-01-27 12:53:00,33.0,-99.9,-100.00,North,-999,-999.0,-999.0,-999,0.00,,,-99.99,,2013-01-27 18:53:00,
2013-01-27 13:02:00,33.0,-99.9,-100.00,North,-999,-999.0,-999.0,-999,0.00,,,-99.99,,2013-01-27 19:02:00,
2013-01-27 13:12:00,33.0,-99.9,-100.00,North,-999,-999.0,-999.0,-999,0.00,,,-99.99,,2013-01-27 19:12:00,
2013-01-27 13:22:00,33.0,-99.9,-100.00,North,-999,-999.0,-999.0,-999,0.00,,,-99.99,,2013-01-27 19:22:00,
2013-01-27 13:33:00,33.0,-99.9,-100.00,North,-999,-999.0,-999.0,-999,0.00,,,-99.99,,2013-01-27 19:33:00,
2013-01-27 13:42:00,33.0,-99.9,-100.00,North,-999,-999.0,-999.0,-999,0.00,,,-99.99,,2013-01-27 19:42:00,
2013-01-27 13:52:00,34.0,-99.9,-100.00,North,-999,-999.0,-999.0,-999,0.00,,,-99.99,,2013-01-27 19:52:00,
2013-01-27 14:03:00,34.0,-99.9,-100.00,North,-999,-999.0,-999.0,-999,0.00,,,-99.99,,2013-01-27 20:03:00,
2013-01-27 14:12:00,34.0,-99.9,-100.00,North,-999,-999.0,-999.0,-999,0.00,,,-99.99,,2013-01-27 20:12:00,
2013-01-27 14:22:00,34.0,-99.9,-100.00,North,-999,-999.0,-999.0,-999,0.00,,,-99.99,,2013-01-27 20:22:00,
2013-01-27 14:33:00,34.0,-99.9,-100.00,North,-999,-999.0,-999.0,-999,0.00,,,-99.99,,2013-01-27 20:33:00,
2013-01-27 14:43:00,34.0,-99.9,-100.00,North,-999,-999.0,-999.0,-999,0.00,,,-99.99,,2013-01-27 20:43:00,
2013-01-27 14:53:00,35.0,-99.9,-100.00,North,-999,-999.0,-999.0,-999,0.00,,,-99.99,,2013-01-27 20:53:00,
2013-01-27 15:02:00,35.0,-99.9,-100.00,North,-999,-999.0,-999.0,-999,0.00,,,-99.99,,2013-01-27 21:02:00,
2013-01-27 15:12:00,35.0,-99.9,-100.00,North,-999,-999.0,-999.0,-999,0.00,,,-99.99,,2013-01-27 21:12:00,
2013-01-27 15:23:00,35.0,-99.9,-100.00,North,-999,-999.0,-999.0,-999,0.00,,,-99.99,,2013-01-27 21:23:00,
2013-01-27 15:33:00,35.0,-99.9,-100.00,North,-999,-999.0,-999.0,-999,0.00,,,-99.99,,2013-01-27 21:33:00,
2013-01-27 15:43:00,35.0,-99.9,-100.00,North,-999,-999.0,-999.0,-999,0.00,,,-99.99,,2013-01-27 21:43:00,
2013-01-27 15:53:00,35.0,-99.9,-100.00,North,-999,-999.0,-999.0,-999,0.00,,,-99.99,,2013-01-27 21:53:00,
2013-01-27 16:03:00,35.0,-99.9,-100.00,North,-999,-999.0,-999.0,-999,0.00,,,-99.99,,2013-01-27 22:03:00,
2013-01-27 16:12:00,35.0,-99.9,-100.00,North,-999,-999.0,-999.0,-999,0.00,,,-99.99,,2013-01-27 22:12:00,
2013-01-27 16:22:00,35.0,-99.9,-100.00,North,-999,-999.0,-999.0,-999,0.00,,,-99.99,,2013-01-27 22:22:00,
2013-01-27 16:33:00,35.0,-99.9,-100.00,North,-999,-999.0,-999.0,-999,0.00,,,-99.99,,2013-01-27 22:33:00,
2013-01-27 16:43:00,35.0,-99.9,-100.00,North,-999,-999.0,-999.0,-999,0.00,,,-99.99,,2013-01-27 22:43:00,
2013-01-27 16:52:00,36.0,-99.9,-100.00,North,-999,-999.0,-999.0,-999,0.00,,,-99.99,,2013-01-27 22:52:00,
2013-01-27 17:03:00,36.0,-99.9,-100.00,North,-999,-999.0,-999.0,-999,0.00,,,-99.99,,2013-01-27 23:03:00,
2013-01-27 17:12:00,36.0,-99.9,-100.00,North,-999,-999.0,-999.0,-999,0.00,,,-99.99,,2013-01-27 23:12:00,
2013-01-27 17:22:00,35.0,-99.9,-100.00,North,-999,-999.0,-999.0,-999,0.00,,,-99.99,,2013-01-27 23:22:00,
2013-01-27 17:32:00,36.0,-99.9,-100.00,North,-999,-999.0,-999.0,-999,0.00,,,-99.99,,2013-01-27 23:32:00,
2013-01-27 17:42:00,36.0,-99.9,-100.00,North,-999,-999.0,-999.0,-999,0.00,,,-99.99,,2013-01-27 23:42:00,
2013-01-27 17:53:00,36.0,-99.9,-100.00,North,-999,-999.0,-999.0,-999,0.00,,,-99.99,,2013-01-27 23:53:00,
2013-01-27 18:02:00,36.0,-99.9,-100.00,North,-999,-999.0,-999.0,-999,0.00,,,-99.99,,2013-01-28 00:02:00,
2013-01-27 18:12:00,36.0,-99.9,-100.00,North,-999,-999.0,-999.0,-999,0.00,,,-99.99,,2013-01-28 00:12:00,
2013-01-27 18:22:00,36.0,-99.9,-100.00,North,-999,-999.0,-999.0,-999,0.00,,,-99.99,,2013-01-28 00:22:00,
2013-01-27 18:33:00,36.0,-99.9,-100.00,North,-999,-999.0,-999.0,-999,0.00,,,-99.99,,2013-01-28 00:33:00,
2013-01-27 18:42:00,36.0,-99.9,-100.00,North,-999,-999.0,-999.0,-999,0.00,,,-99.99,,2013-01-28 00:42:00,
2013-01-27 18:52:00,36.0,-99.9,-100.00,North,-999,-999.0,-999.0,-999,0.00,,,-99.99,,2013-01-28 00:52:00,
2013-01-27 19:02:00,36.0,-99.9,-100.00,North,-999,-999.0,-999.0,-999,0.00,,,-99.99,,2013-01-28 01:02:00,
2013-01-27 19:12:00,36.0,-99.9,-100.00,North,-999,-999.0,-999.0,-999,0.00,,,-99.99,,2013-01-28 01:12:00,
2013-01-27 19:22:00,36.0,-99.9,-100.00,North,-999,-999.0,-999.0,-999,0.00,,,-99.99,,2013-01-28 01:22:00,
2013-01-27 19:33:00,37.0,-99.9,-100.00,North,-999,-999.0,-999.0,-999,0.00,,,-99.99,,2013-01-28 01:33:00,
2013-01-27 19:43:00,37.0,-99.9,-100.00,North,-999,-999.0,-999.0,-999,0.00,,,-99.99,,2013-01-28 01:43:00,
2013-01-27 19:52:00,37.0,-99.9,-100.00,North,-999,-999.0,-999.0,-999,0.00,,,-99.99,,2013-01-28 01:52:00,
2013-01-27 20:02:00,37.0,-99.9,-100.00,North,-999,-999.0,-999.0,-999,0.00,,,-99.99,,2013-01-28 02:02:00,
2013-01-27 20:12:00,37.0,-99.9,-100.00,North,-999,-999.0,-999.0,-999,0.00,,,-99.99,,2013-01-28 02:12:00,
2013-01-27 20:22:00,37.0,-99.9,-100.00,North,-999,-999.0,-999.0,-999,0.00,,,-99.99,,2013-01-28 02:22:00,
2013-01-27 20:32:00,37.0,-99.9,-100.00,North,-999,-999.0,-999.0,-999,0.00,,,-99.99,,2013-01-28 02:32:00,
2013-01-27 20:42:00,37.0,-99.9,-100.00,North,-999,-999.0,-999.0,-999,0.00,,,-99.99,,2013-01-28 02:42:00,
2013-01-27 20:53:00,37.0,-99.9,-100.00,North,-999,-999.0,-999.0,-999,0.00,,,-99.99,,2013-01-28 02:53:00,
2013-01-27 21:02:00,37.0,-99.9,-100.00,North,-999,-999.0,-999.0,-999,0.00,,,-99.99,,2013-01-28 03:02:00,
2013-01-27 21:12:00,38.0,-99.9,-100.00,North,-999,-999.0,-999.0,-999,0.00,,,-99.99,,2013-01-28 03:12:00,
2013-01-27 21:22:00,38.0,-99.9,-100.00,North,-999,-999.0,-999.0,-999,0.00,,,-99.99,,2013-01-28 03:22:00,
2013-01-27 21:32:00,38.0,-99.9,-100.00,North,-999,-999.0,-999.0,-999,0.00,,,-99.99,,2013-01-28 03:32:00,
2013-01-27 21:42:00,38.0,-99.9,-100.00,North,-999,-999.0,-999.0,-999,0.00,,,-99.99,,2013-01-28 03:42:00,
2013-01-27 21:53:00,38.0,-99.9,-100.00,North,-999,-999.0,-999.0,-999,0.00,,,-99.99,,2013-01-28 03:53:00,
2013-01-27 22:03:00,38.0,-99.9,-100.00,North,-999,-999.0,-999.0,-999,0.00,,,-99.99,,2013-01-28 04:03:00,
2013-01-27 22:12:00,38.0,-99.9,-100.00,North,-999,-999.0,-999.0,-999,0.00,,,-99.99,,2013-01-28 04:12:00,
2013-01-27 22:22:00,38.0,-99.9,-100.00,North,-999,-999.0,-999.0,-999,0.00,,,-99.99,,2013-01-28 04:22:00,
2013-01-27 22:32:00,38.0,-99.9,-100.00,North,-999,-999.0,-999.0,-999,0.00,,,-99.99,,2013-01-28 04:32:00,
2013-01-27 22:42:00,38.0,-99.9,-100.00,North,-999,-999.0,-999.0,-999,0.00,,,-99.99,,2013-01-28 04:42:00,
2013-01-27 22:52:00,38.0,-99.9,-100.00,North,-999,-999.0,-999.0,-999,0.00,,,-99.99,,2013-01-28 04:52:00,
2013-01-27 23:04:00,38.0,-99.9,-100.00,North,-999,-999.0,-999.0,-999,0.00,,,-99.99,,2013-01-28 05:04:00,
2013-01-27 23:12:00,38.0,-99.9,-100.00,North,-999,-999.0,-999.0,-999,0.00,,,-99.99,,2013-01-28 05:12:00,
2013-01-27 23:22:00,38.0,-99.9,-100.00,North,-999,-999.0,-999.0,-999,0.00,,,-99.99,,2013-01-28 05:22:00,
2013-01-27 23:32:00,38.0,-99.9,-100.00,North,-999,-999.0,-999.0,-999,0.00,,,-99.99,,2013-01-28 05:32:00,
2013-01-27 23:42:00,38.0,-99.9,-100.00,North,-999,-999.0,-999.0,-999,0.00,,,-99.99,,2013-01-28 05:42:00,
2013-01-27 23:53:00,38.0,-99.9,-100.00,North,-999,-999.0,-999.0,-999,0.00,,,-99.99,,2013-01-28 05:53:00,